Weather History for KPBI - November, 2014

Change the Weather History Date:

Friday, November 14, 2014

  Actual Average Record
Temperature  
Mean Temperature 71 °F 73 °F  
Max Temperature 82 °F 80 °F 87 °F (1948)
Min Temperature 60 °F 66 °F 37 °F (1906)
Degree Days  
Heating Degree Days 0 0  
Month to date heating degree days 8 0  
Since 1 July heating degree days 8 1  
Cooling Degree Days 6 8  
Month to date cooling degree days 83 129  
Year to date cooling degree days 4019 3750  
Growing Degree Days 21 (Base 50)    
Moisture  
Dew Point 62 °F    
Average Humidity 70    
Maximum Humidity 100    
Minimum Humidity 40    
Precipitation  
Precipitation 0.00 in 0.19 in 3.07 in (1926)
Month to date precipitation 0.92 2.49  
Year to date precipitation 58.51 56.69  
Snow  
Snow 0.00 in - - ()
Month to date snowfall 0.0  
Since 1 July snowfall 0.0  
Since 1 September snowfall 0.0  
Snow Depth 0.00 in    
Sea Level Pressure  
Sea Level Pressure 30.02 in    
Wind  
Wind Speed 6 mph (NNW)    
Max Wind Speed 15 mph    
Max Gust Speed 18 mph    
Visibility 10 miles    
Events      
T = Trace of Precipitation, MM = Missing Value Source: NWS Daily Summary

Daily Weather History Graph

Daily Weather History Graph

Search for Another Location

Airport or City:

Trip Planner

Search our weather history database for the weather conditions in past years. The results will help you decide how hot, cold, wet, or windy it might be!

Date:

Astronomy

Nov. 14, 2014 Rise Set
Actual Time 6:39 AM EST 5:30 PM EST
Civil Twilight 6:14 AM EST 5:54 PM EST
Nautical Twilight 5:46 AM EST 6:22 PM EST
Astronomical Twilight 5:19 AM EST 6:50 PM EST
Moon No Moon Rise 12:42 PM EST (11/14)
Length of Visible Light 11h 40m
Length of Day
10h 51m
Waning Gibbous, 49% of the Moon is Illuminated
Nov 14
Waning Gibbous
Nov 22
New
Nov 29
First Quarter
Dec 6
Full
Dec 14
Last Quarter

Hourly Weather History & Observations

Time (EST) Temp. Heat Index Dew Point Humidity Pressure Visibility Wind Dir Wind Speed Gust Speed Precip Events Conditions
12:53 AM 64.9 °F - 63.0 °F 93% 29.99 in 10.0 mi Calm Calm - N/A   Clear
1:53 AM 64.9 °F - 63.0 °F 93% 29.97 in 10.0 mi Calm Calm - N/A   Clear
2:53 AM 63.0 °F - 62.1 °F 97% 29.96 in 10.0 mi Calm Calm - N/A   Partly Cloudy
3:53 AM 63.0 °F - 61.0 °F 93% 29.96 in 10.0 mi Calm Calm - N/A   Scattered Clouds
4:53 AM 64.0 °F - 61.0 °F 90% 29.96 in 10.0 mi Calm Calm - N/A   Partly Cloudy
5:53 AM 61.0 °F - 60.1 °F 97% 29.98 in 10.0 mi Calm Calm - N/A   Mostly Cloudy
6:53 AM 64.0 °F - 62.1 °F 93% 30.00 in 10.0 mi WNW 6.9 mph - N/A   Mostly Cloudy
7:53 AM 66.9 °F - 63.0 °F 87% 30.02 in 10.0 mi NW 6.9 mph - N/A   Scattered Clouds
8:53 AM 72.0 °F - 64.0 °F 76% 30.03 in 10.0 mi NW 8.1 mph - N/A   Partly Cloudy
9:53 AM 75.0 °F - 63.0 °F 66% 30.05 in 10.0 mi NNW 11.5 mph - N/A   Partly Cloudy
10:53 AM 77.0 °F - 62.1 °F 60% 30.05 in 10.0 mi NW 4.6 mph - N/A   Partly Cloudy
11:53 AM 79.0 °F - 55.9 °F 45% 30.03 in 10.0 mi NW 3.5 mph - N/A   Partly Cloudy
12:53 PM 82.0 °F 81.6 °F 55.9 °F 41% 30.01 in 10.0 mi North 6.9 mph - N/A   Partly Cloudy
1:53 PM 80.1 °F 81.5 °F 63.0 °F 56% 29.99 in 10.0 mi East 10.4 mph - N/A   Partly Cloudy
2:53 PM 79.0 °F - 62.1 °F 56% 29.99 in 10.0 mi ENE 11.5 mph - N/A   Partly Cloudy
3:53 PM 78.1 °F - 62.1 °F 58% 29.99 in 10.0 mi NE 10.4 mph - N/A   Partly Cloudy
4:53 PM 75.9 °F - 62.1 °F 62% 30.01 in 10.0 mi NNE 6.9 mph - N/A   Scattered Clouds
5:53 PM 73.9 °F - 66.0 °F 76% 30.03 in 10.0 mi North 11.5 mph - N/A   Scattered Clouds
6:53 PM 72.0 °F - 64.9 °F 78% 30.05 in 10.0 mi NNW 10.4 mph - N/A   Mostly Cloudy
7:53 PM 70.0 °F - 64.0 °F 81% 30.08 in 10.0 mi NNW 11.5 mph - N/A   Mostly Cloudy
8:53 PM 70.0 °F - 64.0 °F 81% 30.09 in 10.0 mi NNW 5.8 mph - N/A   Scattered Clouds
9:53 PM 66.9 °F - 63.0 °F 87% 30.10 in 10.0 mi NNW 8.1 mph - N/A   Scattered Clouds
10:53 PM 66.9 °F - 62.1 °F 84% 30.10 in 10.0 mi NNW 8.1 mph - N/A   Partly Cloudy
11:53 PM 66.0 °F - 62.1 °F 87% 30.09 in 10.0 mi NNW 10.4 mph - N/A   Clear